Lanai Airport Lanai City US
ICAO: PHNY
IATA:
Category: Medium
Scheduled Services:

Elevation: 1308 ft
TransAlt. 0 ft.

Airport Communications:
ASOS:118.375
HONOLULU CNTR:119.3
CTAF:122.9
RDO:117.7

PHNY Zoom In..

If you have problems with the map follow the link
https://www.worldairports.se/pages/airport.php?
ICAO=PHNY

Runways:

(A) RW 03 length 5001 ft width 150 ft
ILS 111.10 / hdg 33

(B) RW 21 length 5001 ft width 150 ft
---- / hdg 213

Location; PHNY
Day. 16 / Time. 03.56 Zulu
* Altimeter: 29.99
* Temperature: 22° c. 71.6°f.
* Wind from: 050° Speed 13 kn with Gusts up to 20 kn.
Dewpoint: 19° c.
Visibility: 10 Statute Miles.
Clouds: Clear (automated report).

PHNY 160356Z AUTO 05013G20KT 10SM CLR 22/19 A2999 RMK AO2 SLP137 T02220189


Wind From 050°
Speed 13 kn.

 
 
jpsmedia.com for Web Design worldairports.se 2018   terms of use